Dyersburg, TN

12:18 AM CST on February 27, 2017 (GMT -0600)
Dyersburg Municipal

Weather History for KDYR - November, 2012

Change the Weather History Date:

Sunday, November 18, 2012

  Actual Average Record
Temperature  
Mean Temperature 47 °F -  
Max Temperature 62 °F 56 °F 73 °F (2001)
Min Temperature 32 °F 39 °F 17 °F (2014)
Degree Days  
Heating Degree Days 18    
Moisture  
Dew Point 30 °F    
Average Humidity 53    
Maximum Humidity 70    
Minimum Humidity 32    
Precipitation  
Precipitation 0.00 in - - ()
Sea Level Pressure  
Sea Level Pressure 30.38 in    
Wind  
Wind Speed 3 mph (ESE)    
Max Wind Speed 8 mph    
Max Gust Speed -    
Visibility 10 miles    
Events      
Averages and records for this station are not official NWS values.
T = Trace of Precipitation, MM = Missing Value Source: NWS Daily Summary

Daily Weather History Graph

Daily Weather History Graph

Search for Another Location

Airport or City:

Trip Planner

Search our weather history database for the weather conditions in past years. The results will help you decide how hot, cold, wet, or windy it might be!

Date:

Astronomy

Nov. 18, 2012 Rise Set
Actual Time 6:37 AM CST 4:47 PM CST
Civil Twilight 6:10 AM CST 5:15 PM CST
Nautical Twilight 5:39 AM CST 5:46 PM CST
Astronomical Twilight 5:08 AM CST 6:17 PM CST
Moon 11:06 AM CST (11/18) 10:04 PM CST (11/18)
Length of Visible Light 11h 05m
Length of Day
10h 10m
Waxing Crescent, 30% of the Moon is Illuminated
Nov 18
Waxing Crescent
Nov 20
First Quarter
Nov 28
Full
Dec 6
Last Quarter
Dec 13
New

Hourly Weather History & Observations

Time (CST) Temp. Windchill Dew Point Humidity Pressure Visibility Wind Dir Wind Speed Gust Speed Precip Events Conditions
12:15 AM 39.2 °F 37.0 °F 26.6 °F 61% 30.41 in 10.0 mi ENE 3.5 mph - N/A   Clear
12:35 AM 39.2 °F 35.0 °F 26.6 °F 61% 30.40 in 10.0 mi ENE 5.8 mph - N/A   Clear
1:15 AM 39.2 °F 37.0 °F 26.6 °F 61% 30.39 in 10.0 mi East 3.5 mph - N/A   Clear
1:55 AM 35.6 °F 31.7 °F 24.8 °F 65% 30.39 in 10.0 mi East 4.6 mph - N/A   Clear
2:15 AM 35.6 °F - 24.8 °F 65% 30.39 in 10.0 mi Calm Calm - N/A   Clear
2:35 AM 37.4 °F - 24.8 °F 60% 30.39 in 10.0 mi Calm Calm - N/A   Clear
2:55 AM 37.4 °F - 24.8 °F 60% 30.38 in 10.0 mi Calm Calm - N/A   Clear
3:15 AM 35.6 °F - 24.8 °F 65% 30.38 in 10.0 mi Calm Calm - N/A   Clear
3:35 AM 35.6 °F - 26.6 °F 70% 30.38 in 10.0 mi Calm Calm - N/A   Clear
3:55 AM 35.6 °F 32.8 °F 24.8 °F 65% 30.39 in 10.0 mi East 3.5 mph - N/A   Clear
4:15 AM 33.8 °F 30.8 °F 23.0 °F 65% 30.40 in 10.0 mi East 3.5 mph - N/A   Clear
4:35 AM 35.6 °F - 24.8 °F 65% 30.40 in 10.0 mi Calm Calm - N/A   Clear
4:56 AM 33.8 °F 30.8 °F 24.8 °F 70% 30.40 in 10.0 mi East 3.5 mph - N/A   Clear
5:15 AM 32.0 °F 28.7 °F 23.0 °F 69% 30.40 in 10.0 mi ENE 3.5 mph - N/A   Clear
5:35 AM 33.8 °F 30.8 °F 23.0 °F 65% 30.40 in 10.0 mi ENE 3.5 mph - N/A   Clear
5:55 AM 33.8 °F - 24.8 °F 70% 30.40 in 10.0 mi Calm Calm - N/A   Clear
6:15 AM 33.8 °F 30.8 °F 24.8 °F 70% 30.40 in 10.0 mi ENE 3.5 mph - N/A   Clear
6:55 AM 33.8 °F 29.6 °F 23.0 °F 65% 30.40 in 10.0 mi East 4.6 mph - N/A   Clear
7:15 AM 33.8 °F 29.6 °F 24.8 °F 70% 30.40 in 10.0 mi East 4.6 mph - N/A   Clear
7:55 AM 39.2 °F 37.0 °F 28.4 °F 65% 30.41 in 10.0 mi East 3.5 mph - N/A   Clear
8:15 AM 42.8 °F 41.1 °F 30.2 °F 61% 30.41 in 10.0 mi ESE 3.5 mph - N/A   Clear
9:15 AM 48.2 °F - 33.8 °F 58% 30.42 in 10.0 mi SE 4.6 mph - N/A   Clear
9:35 AM 51.8 °F - 33.8 °F 50% 30.43 in 10.0 mi SE 4.6 mph - N/A   Clear
9:55 AM 53.6 °F - 35.6 °F 51% 30.44 in 10.0 mi South 6.9 mph - N/A   Clear
10:15 AM 53.6 °F - 35.6 °F 51% 30.43 in 10.0 mi SSE 8.1 mph - N/A   Clear
10:35 AM 55.4 °F - 35.6 °F 47% 30.43 in 10.0 mi SSE 5.8 mph - N/A   Clear
10:55 AM 57.2 °F - 37.4 °F 48% 30.42 in 10.0 mi South 4.6 mph - N/A   Clear
11:15 AM 59.0 °F - 37.4 °F 45% 30.42 in 10.0 mi South 3.5 mph - N/A   Clear
11:55 AM 60.8 °F - 37.4 °F 42% 30.40 in 10.0 mi SE 5.8 mph - N/A   Clear
12:15 PM 60.8 °F - 37.4 °F 42% 30.38 in 10.0 mi Calm Calm - N/A   Clear
12:35 PM 62.6 °F - 35.6 °F 37% 30.37 in 10.0 mi SE 5.8 mph - N/A   Clear
12:55 PM 62.6 °F - 35.6 °F 37% 30.37 in 10.0 mi SE 6.9 mph - N/A   Clear
1:15 PM 62.6 °F - 33.8 °F 34% 30.36 in 10.0 mi SE 8.1 mph - N/A   Clear
1:35 PM 62.6 °F - 32.0 °F 32% 30.35 in 10.0 mi Calm Calm - N/A   Clear
1:56 PM 62.6 °F - 33.8 °F 34% 30.35 in 10.0 mi SE 5.8 mph - N/A   Clear
2:15 PM 62.6 °F - 35.6 °F 37% 30.34 in 10.0 mi ESE 4.6 mph - N/A   Clear
2:35 PM 62.6 °F - 33.8 °F 34% 30.33 in 10.0 mi West 3.5 mph - N/A   Clear
3:15 PM 62.6 °F - 33.8 °F 34% 30.33 in 10.0 mi Calm Calm - N/A   Clear
3:35 PM 62.6 °F - 33.8 °F 34% 30.33 in 10.0 mi Calm Calm - N/A   Clear
3:56 PM 62.6 °F - 33.8 °F 34% 30.33 in 10.0 mi Calm Calm - N/A   Clear
4:15 PM 60.8 °F - 32.0 °F 34% 30.34 in 10.0 mi Calm Calm - N/A   Clear
4:35 PM 60.8 °F - 32.0 °F 34% 30.34 in 10.0 mi Calm Calm - N/A   Clear
5:15 PM 53.6 °F - 30.2 °F 41% 30.34 in 10.0 mi Calm Calm - N/A   Clear
5:35 PM 53.6 °F - 30.2 °F 41% 30.34 in 10.0 mi Calm Calm - N/A   Clear
5:56 PM 51.8 °F - 30.2 °F 44% 30.34 in 10.0 mi East 3.5 mph - N/A   Clear
6:15 PM 48.2 °F - 30.2 °F 50% 30.34 in 10.0 mi Calm Calm - N/A   Clear
6:35 PM 51.8 °F - 30.2 °F 44% 30.35 in 10.0 mi Calm Calm - N/A   Clear
7:15 PM 48.2 °F - 30.2 °F 50% 30.34 in 10.0 mi ENE 4.6 mph - N/A   Clear
7:35 PM 44.6 °F - 30.2 °F 57% 30.35 in 10.0 mi Calm Calm - N/A   Clear
8:15 PM 46.4 °F - 30.2 °F 53% 30.35 in 10.0 mi Calm Calm - N/A   Clear
8:35 PM 42.8 °F 41.1 °F 28.4 °F 57% 30.35 in 10.0 mi East 3.5 mph - N/A   Clear
8:55 PM 42.8 °F 40.1 °F 30.2 °F 61% 30.35 in 10.0 mi East 4.6 mph - N/A   Clear
9:35 PM 42.8 °F 40.1 °F 30.2 °F 61% 30.35 in 10.0 mi East 4.6 mph - N/A   Clear
9:55 PM 39.2 °F - 28.4 °F 65% 30.35 in 10.0 mi Calm Calm - N/A   Clear
10:16 PM 42.8 °F - 28.4 °F 57% 30.34 in 10.0 mi Calm Calm - N/A   Clear
10:35 PM 39.2 °F - 28.4 °F 65% 30.34 in 10.0 mi Calm Calm - N/A   Clear
10:55 PM 39.2 °F 37.0 °F 28.4 °F 65% 30.35 in 10.0 mi ESE 3.5 mph - N/A   Clear
11:55 PM 39.2 °F - 28.4 °F 65% 30.34 in 10.0 mi Calm Calm - N/A   Clear